| time (UTC) | temp F | wind direction | speed knots | gust knots | rain 1hr in | rain 24hr in | rain mn in | humidity % | barometer mb |
| 20260505184543 | 58 | 311 | 5.2 | 12.2 | 0.00 | 0.21 | 0.15 | 80 | 1017.3 |
| 20260505183051 | 58 | 296 | 6.1 | 11.3 | 0.00 | 0.21 | 0.15 | 83 | 1017.3 |
| 20260505181545 | 57 | 302 | 6.1 | 11.3 | 0.00 | 0.21 | 0.15 | 82 | 1017.3 |
| 20260505180045 | 57 | 265 | 7.0 | 13.9 | 0.00 | 0.21 | 0.15 | 84 | 1017.2 |
| 20260505174543 | 57 | 303 | 8.7 | 13.9 | 0.00 | 0.21 | 0.15 | 85 | 1017.1 |
| 20260505173049 | 56 | 228 | 5.2 | 12.2 | 0.00 | 0.21 | 0.15 | 87 | 1016.8 |
| 20260505171547 | 55 | 279 | 2.6 | 11.3 | 0.00 | 0.21 | 0.15 | 90 | 1016.9 |
| 20260505170046 | 55 | 271 | 3.5 | 7.0 | 0.00 | 0.21 | 0.15 | 92 | 1016.9 |
| 20260505164555 | 55 | 304 | 5.2 | 9.6 | 0.00 | 0.21 | 0.15 | 93 | 1016.9 |
| 20260505163050 | 54 | 325 | 1.7 | 6.1 | 0.00 | 0.21 | 0.15 | 94 | 1016.8 |
| 20260505161556 | 54 | 9 | 0.9 | 7.8 | 0.00 | 0.21 | 0.15 | 93 | 1016.9 |
| 20260505153122 | 54 | 317 | 7.8 | 13.9 | 0.00 | 0.21 | 0.15 | 92 | 1016.5 |
| 20260505151545 | 54 | 299 | 6.1 | 10.4 | 0.00 | 0.21 | 0.15 | 91 | 1016.3 |
| 20260505124547 | 52 | 292 | 1.7 | 7.0 | 0.00 | 0.21 | 0.15 | 92 | 1015.6 |
| 20260505123052 | 52 | 0 | 0.9 | 2.6 | 0.00 | 0.21 | 0.15 | 93 | 1015.8 |
| 20260505121542 | 52 | 0 | 0.0 | 2.6 | 0.00 | 0.21 | 0.15 | 93 | 1015.9 |
| 20260505120049 | 52 | 0 | 0.0 | 3.5 | 0.00 | 0.21 | 0.15 | 93 | 1015.9 |
| 20260505114538 | 52 | 292 | 0.9 | 6.1 | 0.01 | 0.21 | 0.15 | 93 | 1015.8 |
| 20260505113043 | 52 | 157 | 0.9 | 4.3 | 0.01 | 0.21 | 0.15 | 93 | 1015.7 |
| 20260505111543 | 52 | 137 | 1.7 | 2.6 | 0.01 | 0.21 | 0.15 | 93 | 1016.0 |
| 20260505101542 | 52 | 124 | 1.7 | 4.3 | 0.00 | 0.20 | 0.14 | 93 | 1015.9 |
| 20260505100045 | 52 | 76 | 0.9 | 2.6 | 0.01 | 0.20 | 0.14 | 93 | 1016.0 |
| 20260505094541 | 52 | 93 | 0.9 | 3.5 | 0.01 | 0.20 | 0.14 | 93 | 1016.1 |
| 20260505093045 | 52 | 0 | 0.0 | 2.6 | 0.01 | 0.20 | 0.14 | 93 | 1016.3 |
| 20260505091541 | 52 | 0 | 0.0 | 3.5 | 0.04 | 0.20 | 0.14 | 93 | 1016.3 |
| 20260505090043 | 52 | 153 | 0.0 | 3.5 | 0.06 | 0.19 | 0.13 | 92 | 1016.5 |
| 20260505084547 | 52 | 115 | 0.9 | 2.6 | 0.07 | 0.19 | 0.13 | 92 | 1016.7 |
| 20260505083050 | 52 | 137 | 0.9 | 3.5 | 0.09 | 0.19 | 0.13 | 92 | 1016.6 |
| 20260505081548 | 51 | 158 | 0.9 | 3.5 | 0.07 | 0.16 | 0.10 | 92 | 1016.6 |
| 20260505080040 | 51 | 178 | 0.0 | 2.6 | 0.06 | 0.13 | 0.07 | 91 | 1016.6 |
| 20260505074541 | 51 | 287 | 0.9 | 3.5 | 0.06 | 0.12 | 0.06 | 91 | 1016.8 |
| 20260505073046 | 52 | 257 | 1.7 | 3.5 | 0.04 | 0.10 | 0.04 | 91 | 1016.7 |
| 20260505071544 | 52 | 334 | 0.9 | 3.5 | 0.03 | 0.08 | 0.02 | 91 | 1017.0 |
| 20260505070046 | 52 | 38 | 0.9 | 3.5 | 0.02 | 0.06 | 0.00 | 91 | 1017.2 |
| 20260505064557 | 52 | 309 | 3.5 | 8.7 | 0.03 | 0.06 | 0.06 | 90 | 1016.7 |
| 20260505063049 | 52 | 292 | 3.5 | 11.3 | 0.03 | 0.06 | 0.06 | 90 | 1016.5 |
| 20260505061539 | 52 | 341 | 6.1 | 14.8 | 0.02 | 0.05 | 0.05 | 90 | 1016.3 |
| 20260505060049 | 53 | 348 | 6.1 | 12.2 | 0.02 | 0.04 | 0.04 | 90 | 1016.3 |
| 20260505054547 | 53 | 344 | 3.5 | 7.0 | 0.02 | 0.03 | 0.03 | 89 | 1016.5 |
| 20260505053107 | 53 | 335 | 2.6 | 7.8 | 0.03 | 0.03 | 0.03 | 89 | 1016.5 |
| 20260505051549 | 53 | 316 | 3.5 | 10.4 | 0.03 | 0.03 | 0.03 | 88 | 1016.6 |
| 20260505041549 | 56 | 338 | 7.8 | 13.0 | 0.00 | 0.00 | 0.00 | 81 | 1016.8 |
| 20260505040050 | 56 | 323 | 4.3 | 9.6 | 0.00 | 0.00 | 0.00 | 81 | 1016.5 |
| 20260505034610 | 56 | 341 | 4.3 | 9.6 | 0.00 | 0.00 | 0.00 | 80 | 1016.3 |
| 20260505033051 | 56 | 330 | 5.2 | 11.3 | 0.00 | 0.00 | 0.00 | 80 | 1016.1 |
| 20260505031542 | 56 | 309 | 5.2 | 10.4 | 0.00 | 0.00 | 0.00 | 79 | 1016.0 |
| 20260505030042 | 56 | 327 | 7.0 | 13.0 | 0.00 | 0.00 | 0.00 | 78 | 1015.9 |
| 20260505024548 | 56 | 311 | 7.0 | 15.6 | 0.00 | 0.00 | 0.00 | 77 | 1015.8 |
| 20260505023047 | 57 | 347 | 7.8 | 13.9 | 0.00 | 0.00 | 0.00 | 78 | 1015.9 |
| 20260505021538 | 57 | 316 | 7.0 | 13.9 | 0.00 | 0.00 | 0.00 | 79 | 1015.9 |
| 20260505020043 | 57 | 319 | 7.0 | 13.9 | 0.00 | 0.00 | 0.00 | 79 | 1015.9 |
| 20260505014544 | 58 | 270 | 7.8 | 14.8 | 0.00 | 0.00 | 0.00 | 77 | 1016.1 |
| 20260505013043 | 58 | 336 | 7.8 | 16.5 | 0.00 | 0.00 | 0.00 | 77 | 1016.2 |
| 20260505011602 | 58 | 321 | 7.8 | 13.0 | 0.00 | 0.00 | 0.00 | 77 | 1016.2 |
| 20260505010043 | 58 | 294 | 10.4 | 16.5 | 0.00 | 0.00 | 0.00 | 76 | 1016.3 |
| 20260505004547 | 59 | 305 | 5.2 | 17.4 | 0.00 | 0.00 | 0.00 | 75 | 1016.3 |
| 20260505003049 | 59 | 330 | 7.0 | 13.9 | 0.00 | 0.00 | 0.00 | 73 | 1016.3 |
| 20260505001547 | 59 | 289 | 8.7 | 18.2 | 0.00 | 0.00 | 0.00 | 72 | 1016.5 |
| 20260505000058 | 60 | 285 | 7.0 | 15.6 | 0.00 | 0.00 | 0.00 | 73 | 1016.4 |
| 20260504234541 | 60 | 292 | 9.6 | 17.4 | 0.00 | 0.00 | 0.00 | 69 | 1016.2 |
| 20260504233102 | 60 | 290 | 9.6 | 17.4 | 0.00 | 0.00 | 0.00 | 69 | 1016.2 |
| 20260504231539 | 60 | 250 | 8.7 | 17.4 | 0.00 | 0.00 | 0.00 | 68 | 1016.2 |
| 20260504230043 | 61 | 266 | 8.7 | 16.5 | 0.00 | 0.00 | 0.00 | 67 | 1016.3 |
| 20260504224544 | 61 | 271 | 6.1 | 15.6 | 0.00 | 0.00 | 0.00 | 66 | 1016.3 |
| 20260504223040 | 62 | 298 | 7.8 | 17.4 | 0.00 | 0.00 | 0.00 | 63 | 1016.4 |
| 20260504221539 | 61 | 305 | 9.6 | 16.5 | 0.00 | 0.00 | 0.00 | 65 | 1016.5 |
| 20260504220040 | 61 | 303 | 8.7 | 17.4 | 0.00 | 0.00 | 0.00 | 67 | 1016.7 |
| 20260504214546 | 62 | 269 | 7.8 | 20.9 | 0.00 | 0.00 | 0.00 | 67 | 1016.5 |
| 20260504213044 | 62 | 278 | 9.6 | 17.4 | 0.00 | 0.00 | 0.00 | 64 | 1016.6 |
| 20260504211542 | 63 | 285 | 7.8 | 18.2 | 0.00 | 0.00 | 0.00 | 62 | 1016.5 |
| 20260504210041 | 63 | 274 | 7.0 | 18.2 | 0.00 | 0.00 | 0.00 | 61 | 1016.7 |